QZS-2 (MICHIBIKI-2)

Last updated on Tue Oct 08 2024 00:02:40 GMT+0000 (Coordinated Universal Time)

1 42738U 17028A 24281.24771694 -.00000164 00000+0 00000+0 0 9999 2 42738 40.4001 252.1463 0746163 270.6448 82.2735 1.00254740 1434
UTC large
Height (km)
Speed (km/s)
/
Latitude / Longitude
Inclination (degrees)
Orbital Period (minutes)
Azimuth
Elevation
Range (km)
Doppler Factor

Next 0 passes for location: London (51.5072 / 0.1276)

Sorry there are no passes over London.